GW5754 Weather Reports


time (UTC)temp
C
wind
direction
speed
KPH
gust
KPH
rain 1hr
cm
rain 24hr
cm
rain mn
cm
humidity
%
barometer
mb
20260506184115 12 45 0.0 1.6 0.00 0.00 0.00 88 1028.0
20260506183615 12 293 4.8 4.8 0.00 0.00 0.00 88 1028.0
20260506183115 12 270 3.2 4.8 0.00 0.00 0.00 88 1028.0
20260506182615 12 315 8.0 8.0 0.00 0.00 0.00 88 1028.0
20260506182114 13 225 1.6 3.2 0.00 0.00 0.00 87 1028.0
20260506181615 12 45 0.0 0.0 0.00 0.00 0.00 88 1028.0
20260506181114 12 315 0.0 1.6 0.00 0.00 0.00 88 1028.0
20260506180615 12 225 3.2 4.8 0.00 0.00 0.00 89 1028.0
20260506180115 12 248 4.8 6.4 0.00 0.00 0.00 89 1028.0
20260506175615 12 248 0.0 3.2 0.00 0.00 0.00 89 1028.0
20260506175115 12 293 3.2 4.8 0.00 0.00 0.00 88 1028.0
20260506174614 12 158 0.0 1.6 0.00 0.00 0.00 88 1028.0
20260506174115 12 315 1.6 3.2 0.00 0.00 0.00 89 1028.0
20260506173615 12 338 0.0 1.6 0.00 0.00 0.00 89 1028.0
20260506173115 12 23 3.2 3.2 0.00 0.00 0.00 89 1028.0
20260506172615 12 270 3.2 3.2 0.00 0.00 0.00 89 1028.0
20260506172115 12 338 1.6 3.2 0.00 0.00 0.00 90 1028.0
20260506171615 12 23 0.0 1.6 0.00 0.00 0.00 90 1028.0
20260506171114 12 45 0.0 1.6 0.00 0.00 0.00 91 1028.0
20260506170615 12 203 0.0 1.6 0.00 0.00 0.00 91 1028.0
20260506170115 12 293 3.2 3.2 0.00 0.00 0.00 91 1028.0
20260506165614 12 270 3.2 3.2 0.00 0.00 0.00 91 1028.0
20260506165115 12 158 0.0 0.0 0.00 0.00 0.00 91 1028.0
20260506164615 12 293 1.6 1.6 0.00 0.00 0.00 91 1028.0
20260506164114 11 113 0.0 0.0 0.00 0.00 0.00 92 1028.0
20260506163615 11 225 3.2 3.2 0.00 0.00 0.00 92 1028.0
20260506163114 11 248 1.6 3.2 0.00 0.00 0.00 92 1028.0
20260506162614 11 68 1.6 3.2 0.00 0.00 0.00 92 1028.0
20260506162115 11 45 1.6 3.2 0.00 0.00 0.00 91 1028.0
20260506161615 11 45 1.6 3.2 0.00 0.00 0.00 92 1028.0
20260506161115 11 23 1.6 3.2 0.00 0.00 0.00 92 1028.0
20260506160615 11 113 0.0 0.0 0.00 0.00 0.00 92 1028.0
20260506160115 11 68 1.6 3.2 0.00 0.00 0.00 93 1028.0
20260506155615 11 113 0.0 0.0 0.00 0.00 0.00 93 1028.0
20260506155115 11 0 1.6 3.2 0.00 0.00 0.00 93 1028.0
20260506154615 11 293 1.6 3.2 0.00 0.00 0.00 94 1028.0
20260506154116 11 315 0.0 1.6 0.00 0.00 0.00 95 1028.0
20260506153615 11 338 1.6 3.2 0.00 0.00 0.00 95 1028.0
20260506153115 11 23 0.0 0.0 0.00 0.00 0.00 96 1028.0
20260506152615 11 293 3.2 3.2 0.00 0.00 0.00 96 1028.0
20260506152114 11 225 0.0 0.0 0.00 0.00 0.00 96 1027.0
20260506151615 11 293 3.2 3.2 0.00 0.00 0.00 95 1028.0
20260506151114 11 135 0.0 0.0 0.00 0.00 0.00 95 1027.0
20260506150615 11 135 0.0 0.0 0.00 0.00 0.00 96 1027.0
20260506150116 11 90 1.6 3.2 0.00 0.00 0.00 97 1027.0
20260506145615 11 90 0.0 1.6 0.00 0.00 0.00 97 1027.0
20260506145115 11 158 0.0 0.0 0.00 0.00 0.00 97 1027.0
20260506144615 11 90 0.0 1.6 0.00 0.00 0.00 97 1027.0
20260506144114 11 158 0.0 0.0 0.00 0.00 0.00 97 1027.0
20260506143617 11 113 0.0 0.0 0.00 0.00 0.00 97 1027.0
20260506143115 11 113 0.0 0.0 0.00 0.00 0.00 97 1028.0
20260506142616 11 0 0.0 0.0 0.00 0.00 0.00 97 1027.0
20260506142115 11 180 0.0 0.0 0.00 0.00 0.00 96 1028.0
20260506141615 11 113 0.0 0.0 0.00 0.00 0.00 97 1028.0
20260506141115 11 113 0.0 1.6 0.00 0.00 0.00 96 1028.0
20260506140615 11 45 1.6 3.2 0.00 0.00 0.00 96 1027.0
20260506140116 11 68 0.0 0.0 0.00 0.00 0.00 96 1027.0
20260506135614 11 68 0.0 1.6 0.00 0.00 0.00 96 1027.0
20260506135115 11 0 0.0 0.0 0.00 0.00 0.00 96 1027.0
20260506134616 11 248 1.6 3.2 0.00 0.00 0.00 96 1027.0
20260506134115 11 293 1.6 1.6 0.00 0.00 0.00 96 1027.0
20260506133615 11 135 0.0 0.0 0.00 0.00 0.00 96 1027.0
20260506133115 11 113 0.0 0.0 0.00 0.00 0.00 96 1027.0
20260506132614 11 68 0.0 0.0 0.00 0.00 0.00 96 1027.0
20260506132116 11 135 0.0 0.0 0.00 0.00 0.00 96 1027.0
20260506131615 11 270 0.0 0.0 0.00 0.00 0.00 96 1027.0
20260506131115 11 293 0.0 1.6 0.00 0.00 0.00 95 1027.0
20260506130616 11 203 0.0 0.0 0.00 0.00 0.00 96 1027.0
20260506130116 11 293 0.0 0.0 0.00 0.00 0.00 96 1027.0
20260506125614 11 90 0.0 0.0 0.00 0.00 0.00 96 1027.0
20260506125114 11 90 0.0 0.0 0.00 0.00 0.00 96 1027.0
20260506124614 11 90 0.0 0.0 0.00 0.00 0.00 96 1027.0
20260506124115 11 23 0.0 0.0 0.00 0.00 0.00 96 1027.0
20260506123615 11 68 0.0 0.0 0.00 0.00 0.00 96 1027.0
20260506123115 11 113 0.0 0.0 0.00 0.00 0.00 96 1027.0
20260506122614 11 113 0.0 0.0 0.00 0.00 0.00 96 1026.0
20260506122115 11 248 1.6 1.6 0.00 0.00 0.00 96 1026.0
20260506121614 11 158 0.0 0.0 0.00 0.00 0.00 96 1026.0
20260506121114 11 113 0.0 0.0 0.00 0.00 0.00 96 1026.0
20260506120614 11 68 0.0 0.0 0.00 0.00 0.00 96 1026.0
20260506120115 11 135 0.0 0.0 0.00 0.00 0.00 96 1026.0
20260506115615 11 203 0.0 0.0 0.00 0.00 0.00 96 1026.0
20260506115114 11 225 3.2 4.8 0.00 0.00 0.00 96 1026.0
20260506114615 11 248 1.6 3.2 0.00 0.00 0.00 97 1027.0
20260506114115 11 270 1.6 3.2 0.00 0.00 0.00 97 1026.0
20260506113614 11 68 0.0 0.0 0.00 0.00 0.00 97 1026.0
20260506113114 11 113 0.0 0.0 0.00 0.00 0.00 97 1026.0
20260506112614 11 90 0.0 0.0 0.00 0.00 0.00 97 1026.0
20260506112114 11 135 0.0 0.0 0.00 0.00 0.00 97 1026.0
20260506111614 11 90 0.0 0.0 0.00 0.00 0.00 97 1026.0
20260506111115 11 135 0.0 0.0 0.00 0.00 0.00 97 1026.0
20260506110615 11 90 0.0 0.0 0.00 0.00 0.00 96 1026.0
20260506110114 11 45 0.0 0.0 0.00 0.00 0.00 96 1026.0
20260506105614 11 68 0.0 0.0 0.00 0.00 0.00 96 1026.0
20260506105115 11 203 0.0 0.0 0.00 0.00 0.00 96 1026.0
20260506104614 11 113 0.0 0.0 0.00 0.00 0.00 96 1026.0
20260506104116 11 23 0.0 0.0 0.00 0.00 0.00 96 1026.0
20260506103614 11 0 0.0 0.0 0.00 0.00 0.00 96 1026.0
20260506103115 11 248 0.0 0.0 0.00 0.00 0.00 96 1026.0
20260506102616 11 135 0.0 0.0 0.00 0.00 0.00 96 1026.0
20260506102116 11 0 0.0 0.0 0.00 0.00 0.00 95 1026.0
20260506101615 11 225 0.0 0.0 0.00 0.00 0.00 95 1026.0
20260506101114 11 315 0.0 0.0 0.00 0.00 0.00 95 1026.0
20260506100614 11 293 0.0 1.6 0.00 0.00 0.00 94 1026.0
20260506100114 11 293 1.6 3.2 0.00 0.00 0.00 94 1026.0
20260506095614 11 270 1.6 3.2 0.00 0.00 0.00 93 1026.0
20260506095114 11 293 1.6 3.2 0.00 0.00 0.00 93 1026.0
20260506094614 11 293 1.6 1.6 0.00 0.00 0.00 92 1026.0
20260506094114 11 270 1.6 3.2 0.00 0.00 0.00 92 1026.0
20260506093615 12 248 3.2 3.2 0.00 0.00 0.00 91 1026.0
20260506093114 12 225 1.6 3.2 0.00 0.00 0.00 91 1026.0
20260506092614 12 270 0.0 0.0 0.00 0.00 0.00 91 1026.0
20260506091625 12 0 0.0 1.6 0.00 0.00 0.00 90 1026.0
20260506091114 12 315 0.0 0.0 0.00 0.00 0.00 90 1026.0
20260506090615 12 270 0.0 1.6 0.00 0.00 0.00 91 1026.0
20260506090114 12 270 1.6 3.2 0.00 0.00 0.00 90 1026.0
20260506085614 12 270 0.0 0.0 0.00 0.00 0.00 90 1026.0
20260506085114 12 203 0.0 1.6 0.00 0.00 0.00 90 1026.0
20260506084618 12 293 1.6 3.2 0.00 0.00 0.00 90 1025.0
20260506084114 12 270 0.0 0.0 0.00 0.00 0.00 89 1025.0
20260506083614 12 0 0.0 0.0 0.00 0.00 0.00 89 1025.0
20260506083115 12 225 0.0 1.6 0.00 0.00 0.00 89 1025.0
20260506082616 12 158 0.0 1.6 0.00 0.00 0.00 89 1025.0
20260506082114 12 225 0.0 0.0 0.00 0.00 0.00 89 1026.0
20260506081616 12 248 1.6 3.2 0.00 0.00 0.00 89 1025.0
20260506081114 12 270 1.6 3.2 0.00 0.00 0.00 89 1025.0
20260506080615 12 225 0.0 1.6 0.00 0.00 0.00 89 1025.0
20260506080114 12 270 0.0 1.6 0.00 0.00 0.00 89 1025.0
20260506073114 12 45 0.0 0.0 0.00 0.00 0.00 91 1025.0
20260506072614 12 315 0.0 0.0 0.00 0.00 0.00 90 1025.0
20260506072114 12 90 0.0 0.0 0.00 0.00 0.00 91 1025.0
20260506071614 12 113 0.0 0.0 0.00 0.00 0.00 90 1025.0
20260506071114 12 45 0.0 0.0 0.00 0.00 0.00 91 1025.0
20260506070615 12 338 0.0 0.0 0.00 0.00 0.00 91 1025.0
20260506070114 12 248 0.0 0.0 0.00 0.00 0.00 90 1025.0
20260506062115 12 90 0.0 0.0 0.00 0.00 0.00 91 1025.0
20260506061614 12 293 0.0 1.6 0.00 0.00 0.00 92 1025.0
20260506061114 12 135 0.0 0.0 0.00 0.00 0.00 92 1024.0
20260506060615 12 90 0.0 0.0 0.00 0.00 0.00 93 1025.0
20260506060115 12 113 0.0 0.0 0.00 0.00 0.00 94 1024.0
20260506051115 11 135 0.0 0.0 0.00 0.00 0.00 95 1024.0
20260506050615 11 135 0.0 0.0 0.00 0.00 0.00 95 1024.0
20260506050115 11 135 0.0 0.0 0.00 0.00 0.00 95 1024.0
20260506045114 11 158 0.0 0.0 0.00 0.00 0.00 94 1024.0
20260506044614 11 113 0.0 0.0 0.00 0.00 0.00 94 1024.0
20260506044114 11 113 0.0 0.0 0.00 0.00 0.00 94 1024.0
20260506043617 12 135 0.0 0.0 0.00 0.00 0.00 93 1024.0
20260506043114 12 180 0.0 0.0 0.00 0.00 0.00 93 1024.0
20260506042616 12 180 0.0 0.0 0.00 0.00 0.00 93 1023.0
20260506042114 12 203 0.0 0.0 0.00 0.00 0.00 93 1023.0
20260506041615 12 158 0.0 0.0 0.00 0.00 0.00 92 1023.0
20260506041114 12 158 0.0 0.0 0.00 0.00 0.00 91 1023.0
20260506040129 13 113 0.0 0.0 0.00 0.00 0.00 90 1023.0
20260506035614 13 90 0.0 0.0 0.00 0.00 0.00 90 1023.0
20260506035114 13 135 0.0 0.0 0.00 0.00 0.00 89 1023.0
20260506034614 13 135 0.0 0.0 0.00 0.00 0.00 88 1023.0
20260506034114 13 158 0.0 0.0 0.00 0.00 0.00 88 1023.0
20260506033614 13 225 0.0 0.0 0.00 0.00 0.00 88 1023.0
20260506033114 13 180 0.0 0.0 0.00 0.00 0.00 87 1023.0
20260506032615 14 113 0.0 0.0 0.00 0.00 0.00 86 1023.0
20260506032114 14 248 1.6 3.2 0.00 0.00 0.00 86 1023.0
20260506031616 15 225 1.6 3.2 0.00 0.00 0.00 85 1023.0
20260506031114 15 225 0.0 1.6 0.00 0.00 0.00 84 1023.0
20260506030614 15 248 1.6 3.2 0.00 0.00 0.00 83 1023.0
20260506030114 15 270 1.6 3.2 0.00 0.00 0.00 81 1023.0
20260506025614 16 225 1.6 3.2 0.00 0.00 0.00 79 1023.0
20260506025114 16 248 3.2 3.2 0.00 0.00 0.00 76 1023.0
20260506024615 17 113 1.6 3.2 0.00 0.00 0.00 74 1023.0
20260506024114 17 248 1.6 3.2 0.00 0.00 0.00 74 1023.0
20260506023614 17 270 1.6 3.2 0.00 0.00 0.00 74 1023.0
20260506023115 17 68 1.6 3.2 0.00 0.00 0.00 72 1023.0
20260506022615 17 180 1.6 3.2 0.00 0.00 0.00 72 1023.0
20260506022114 17 225 3.2 4.8 0.00 0.00 0.00 73 1023.0
20260506021614 17 248 3.2 4.8 0.00 0.00 0.00 72 1023.0
20260506021114 17 248 8.0 8.0 0.00 0.00 0.00 71 1023.0
20260506020615 18 293 1.6 3.2 0.00 0.00 0.00 70 1023.0
20260506020115 18 248 3.2 3.2 0.00 0.00 0.00 71 1023.0
20260506015614 18 270 3.2 3.2 0.00 0.00 0.00 70 1023.0
20260506015115 18 315 3.2 3.2 0.00 0.00 0.00 69 1023.0
20260506014614 18 248 1.6 3.2 0.00 0.00 0.00 70 1023.0
20260506014115 18 248 3.2 3.2 0.00 0.00 0.00 69 1023.0
20260506013614 18 225 0.0 3.2 0.00 0.00 0.00 70 1023.0
20260506013114 18 225 4.8 8.0 0.00 0.00 0.00 71 1023.0
20260506012614 18 270 6.4 8.0 0.00 0.00 0.00 71 1023.0
20260506012114 18 248 4.8 6.4 0.00 0.00 0.00 70 1023.0
20260506011614 18 270 3.2 4.8 0.00 0.00 0.00 70 1023.0
20260506011114 18 225 8.0 8.0 0.00 0.00 0.00 70 1023.0
20260506010615 18 270 4.8 6.4 0.00 0.00 0.00 70 1023.0
20260506010115 18 225 4.8 6.4 0.00 0.00 0.00 70 1023.0
20260506005615 18 248 4.8 8.0 0.00 0.00 0.00 69 1023.0
20260506005114 18 315 4.8 8.0 0.00 0.00 0.00 70 1023.0
20260506004614 18 270 6.4 8.0 0.00 0.00 0.00 70 1023.0
20260506004115 18 293 8.0 9.7 0.00 0.00 0.00 70 1023.0
20260506003614 18 293 4.8 6.4 0.00 0.00 0.00 68 1023.0
20260506003115 18 270 3.2 4.8 0.00 0.00 0.00 68 1023.0
20260506002615 18 270 4.8 8.0 0.00 0.00 0.00 70 1023.0
20260506002115 18 180 6.4 8.0 0.00 0.00 0.00 69 1023.0
20260506001615 18 270 8.0 9.7 0.00 0.00 0.00 69 1023.0
20260506001115 17 293 6.4 9.7 0.00 0.00 0.00 70 1023.0